Overview Statistics Trail Chart Weather Telemetry Raw packets
 

This is the latest recevied weather packets stored in our database for station/object DL0BB-10. If no packets are shown the sender has not sent any weather packets the latest 10 day(s).

<< 18 19 20 21 22 23 24 >>
Time Temp. Humidity Pressure Rain* Wind** Luminosity Snow
1788272988 26.67° C 41% 1021.5 hPa - - - -
1788272088 26.67° C 41% 1021.7 hPa - - - -
1788271187 26.67° C 40% 1021.7 hPa - - - -
1788270287 27.22° C 39% 1021.8 hPa - - - -
1788269387 26.11° C 41% 1021.9 hPa - - - -
1788268487 26.11° C 40% 1022.1 hPa - - - -
1788267587 26.67° C 40% 1022.3 hPa - - - -
1788266687 27.22° C 39% 1022.3 hPa - - - -
1788265787 26.11° C 41% 1022.5 hPa - - - -
1788264887 26.11° C 40% 1022.5 hPa - - - -
1788263987 26.67° C 39% 1022.5 hPa - - - -
1788263087 26.67° C 39% 1022.6 hPa - - - -
1788262186 25.56° C 40% 1022.7 hPa - - - -
1788261286 25.56° C 40% 1022.8 hPa - - - -
1788260386 26.11° C 39% 1022.8 hPa - - - -
1788259486 25.56° C 40% 1022.9 hPa - - - -
1788258586 25° C 41% 1022.8 hPa - - - -
1788257686 25.56° C 40% 1022.9 hPa - - - -
1788256786 25.56° C 39% 1022.9 hPa - - - -
1788255886 25° C 40% 1022.9 hPa - - - -
1788254986 25° C 40% 1022.9 hPa - - - -
1788254086 25° C 40% 1023.1 hPa - - - -
1788253185 25.56° C 39% 1023.1 hPa - - - -
1788252288 25° C 40% 1023.1 hPa - - - -
1788251387 24.44° C 40% 1023.2 hPa - - - -

* Rain since midnight (hover to see other rain measurements)
** Current wind speed in m/s (hover to see current wind gust speed)